[[{"header":{"parameterUnit":"m.s-1","parameterCategory":2,"la1":30.2991,"la2":30.254,"lo1":-89.0895,"lo2":-89.0444,"dy":0.0017,"dx":0.0017,"nx":28,"ny":28,"refTime":"2025-06-11T09:00:00:Z","depth":"0","parameterNumber":2,"parameterNumberName":"U-component_of_CURRENTS"},"data":[0,0,0,0,0,0,0,0,0,0,0,0,0,0,0,0,0,0,0,0,0,0,0,0,0,0,0,0,0,0,0,0,0,0,0,0,0,0,0,0,0,0,0,0,0,0,0,0,0,0,0,0,0,0,0,0,0,0,0.1552,0.1553,0,0.1606,0.1607,0.1607,0.1583,0.1582,0.1581,0.158,0.1611,0.1613,0.1615,0,0,0,0,0,0,0,0,0,0,0,0,0,0.1485,0.1486,0.1552,0.1553,0.1554,0.1606,0.1607,0.1607,0.1584,0.1582,0.1581,0.1579,0.161,0.1612,0.1615,0,0,0,0,0,0,0,0,0,0,0,0,0,0.1523,0.1486,0.1552,0.1549,0.1549,0.1606,0.1607,0.1607,0.1584,0.1582,0.158,0.1578,0.1609,0.1612,0.1615,0.1672,0,0,0.1624,0.1626,0,0,0,0,0,0,0,0,0.1521,0.1526,0.1548,0.1549,0.1549,0.1587,0.1594,0.1628,0.1584,0.157,0.158,0.1577,0.1602,0.1606,0.162,0.1673,0.1675,0.1625,0.1627,0.1628,0.1629,0,0,0,0,0,0,0,0.1518,0.1524,0.1573,0.1549,0.155,0.1564,0.1566,0.1601,0.1595,0.1571,0.157,0.1577,0.1602,0.1617,0.162,0.1675,0.1625,0.1627,0.1629,0.163,0.1789,0.1792,0,0,0,0,0,0,0.1513,0.1521,0.1571,0.1575,0.1531,0.1566,0.1569,0.1576,0.1595,0.1597,0.1579,0.1576,0.1613,0.1617,0.1621,0.1679,0.1628,0.1631,0.1632,0.1787,0.179,0.1792,0,0,0,0,0,0,0.1511,0.1517,0.1569,0.1549,0.1557,0.1569,0.1577,0.1578,0.1587,0.1602,0.1602,0.1585,0.1611,0.1617,0.1655,0.168,0.1632,0.1635,0.1784,0.1788,0.1791,0.1801,0,0,0,0,0,0,0.1509,0.1516,0.1524,0.1549,0.1558,0.1606,0.1579,0.1581,0.1595,0.1592,0.1608,0.1609,0.161,0.165,0.1658,0.1683,0.1637,0.1781,0.1786,0.179,0.1798,0.1804,0.181,0,0,0,0,0,0.1506,0.1529,0.1524,0.153,0.1567,0.1607,0.1614,0.1615,0.1597,0.1613,0.1622,0.1608,0.1684,0.1655,0.1663,0.1689,0.1779,0.1784,0.179,0.1795,0.1803,0.181,0,0,0,0,0,0,0.1508,0.153,0.1524,0.1553,0.1577,0.1603,0.1623,0.1621,0.1642,0.1635,0.1636,0.164,0.1685,0.1697,0.1664,0.1754,0.1732,0.1739,0.1733,0.1741,0.1747,0.1769,0.164,0,0,0,0,0,0.1512,0.1531,0.1554,0.1577,0.1591,0.1606,0.1623,0.1625,0.1645,0.1651,0.1661,0.1685,0.172,0.1734,0.1766,0.1815,0.1879,0.1843,0.1849,0.1854,0.1881,0.2002,0.2022,0.181,0.181,0.181,0,0,0.1518,0.1534,0.1544,0.1579,0.1596,0.1625,0.1611,0.1642,0.1662,0.1655,0.1687,0.1708,0.174,0.1789,0.1811,0.1797,0.1951,0.1861,0.1864,0.189,0.201,0.2031,0.2049,0.1814,0.1813,0.1813,0,0,0.1545,0.1556,0.158,0.1603,0.1634,0.1646,0.1654,0.1682,0.169,0.173,0.1732,0.1773,0.1816,0.1849,0.1869,0.1941,0.1982,0.1946,0.1991,0.2107,0.2126,0.2143,0.2257,0.2284,0.1946,0.1946,0.1946,0,0.155,0.1577,0.1596,0.1627,0.1644,0.1654,0.1681,0.1705,0.1739,0.1768,0.1742,0.1843,0.1851,0.1934,0.1949,0.1954,0.203,0.1947,0.2115,0.2133,0.2151,0.2264,0.2294,0.1947,0.1947,0.1947,0.1947,0,0.1594,0.1613,0.1634,0.1666,0.1695,0.1721,0.175,0.1779,0.1784,0.1816,0.1893,0.1919,0.1986,0.1988,0.1984,0.2109,0.2129,0.2107,0.2089,0.2172,0.2287,0.2318,0.1949,0.1949,0.1948,0.1948,0,0,0.16,0.165,0.1655,0.1675,0.1711,0.1744,0.1784,0.184,0.1902,0.1924,0.2019,0.2051,0.208,0.211,0.2118,0.2202,0.2369,0.2205,0.2211,0.2309,0.2647,0.2611,0.2641,0.2378,0.2384,0.2388,0.268,0,0.1619,0.1677,0.1693,0.1743,0.1773,0.1795,0.1851,0.1909,0.1957,0.206,0.2098,0.2199,0.2123,0.2181,0.2244,0.2359,0.2452,0.2294,0.2563,0.2572,0.252,0.2676,0.2601,0.2851,0.271,0.2715,0.2719,0,0.1645,0.1683,0.1731,0.1796,0.1814,0.1846,0.1944,0.2001,0.2134,0.2191,0.2274,0.233,0.2458,0.2388,0.2601,0.2509,0.2585,0.2651,0.2663,0.2652,0.2593,0.2747,0.2912,0.2837,0.2767,0.2763,0.2759,0,0.1645,0.1704,0.174,0.1759,0.1843,0.1872,0.1923,0.2041,0.2128,0.2302,0.2405,0.2531,0.2639,0.2746,0.2829,0.2758,0.3079,0.3,0.3038,0.3036,0.3039,0.3028,0.3156,0.3174,0.3173,0.3172,0.3171,0,0.1654,0.1689,0.1745,0.177,0.1853,0.1901,0.2015,0.2095,0.2252,0.2385,0.2481,0.2615,0.2738,0.2897,0.2947,0.3103,0.3177,0.3106,0.3131,0.3039,0.3025,0.3009,0.2931,0.3183,0.3181,0.3178,0.3177,0,0.1665,0.1686,0.1749,0.1827,0.1852,0.1925,0.2056,0.215,0.2301,0.2482,0.2555,0.2755,0.2973,0.3082,0.3306,0.3272,0.3345,0.3442,0.332,0.3323,0.3237,0.3161,0.3238,0.3141,0.3564,0.3565,0.3566,0,0.1679,0.1709,0.1793,0.1832,0.1863,0.1963,0.2032,0.2168,0.2268,0.2546,0.2635,0.2906,0.3054,0.3372,0.3446,0.3599,0.3442,0.3568,0.3395,0.3279,0.3216,0.3052,0.295,0.3422,0.3422,0.3422,0.3421,0,0.1725,0.175,0.1802,0.1873,0.1926,0.2006,0.2101,0.2185,0.2356,0.2512,0.272,0.2873,0.3186,0.3337,0.3535,0.3579,0.3402,0.3564,0.3504,0.3182,0.2962,0.2862,0.3174,0.3419,0.3419,0.342,0.342,0.342,0.177,0.1807,0.1852,0.1921,0.1966,0.2009,0.2055,0.2163,0.2305,0.2488,0.2677,0.2869,0.3163,0.3447,0.3484,0.3504,0.341,0.3405,0.3353,0.3222,0.3024,0.332,0.3529,0.353,0.3531,0.3531,0.3532,0,0.1813,0.1832,0.1895,0.194,0.1954,0.1986,0.2069,0.2095,0.2199,0.2401,0.2558,0.2866,0.3075,0.3277,0.3422,0.3313,0.3145,0.3225,0.2992,0.292,0.3283,0.3167,0.3234,0.3234,0.3234,0.3234,0.3234,0.3234,0.1832,0.1875,0.189,0.1901,0.1915,0.1899,0.1919,0.1974,0.2092,0.2259,0.2428,0.2604,0.2961,0.3253,0.3256,0.317,0.2898,0.2814,0.275,0.3015,0.3026,0.3037,0.2913,0.2925,0.2924,0.2304,0.2299,0.2296]},{"header":{"parameterUnit":"m.s-1","parameterCategory":2,"la1":30.2991,"la2":30.254,"lo1":-89.0895,"lo2":-89.0444,"dy":0.0017,"dx":0.0017,"nx":28,"ny":28,"refTime":"2025-06-11T09:00:00:Z","depth":"0","parameterNumber":3,"parameterNumberName":"V-component_of_CURRENTS"},"data":[0,0,0,0,0,0,0,0,0,0,0,0,0,0,0,0,0,0,0,0,0,0,0,0,0,0,0,0,0,0,0,0,0,0,0,0,0,0,0,0,0,0,0,0,0,0,0,0,0,0,0,0,0,0,0,0,0,0,-0.0052,-0.0052,0,-0.0008,-0.0007,-0.0006,0.0019,0.0019,0.0019,0.0019,0.0056,0.0057,0.0058,0,0,0,0,0,0,0,0,0,0,0,0,0,-0.0079,-0.0079,-0.0052,-0.0052,-0.0051,-0.0008,-0.0007,-0.0006,0.0019,0.0019,0.0019,0.0018,0.0055,0.0057,0.0058,0,0,0,0,0,0,0,0,0,0,0,0,0,-0.0053,-0.0079,-0.0052,-0.0035,-0.0033,-0.0008,-0.0007,-0.0006,0.0019,0.0019,0.0019,0.0018,0.0055,0.0057,0.0058,0.0071,0,0,0.0063,0.0064,0,0,0,0,0,0,0,0,-0.0054,-0.0051,-0.0038,-0.0036,-0.0034,-0.0002,-0.0003,0.0019,0.0019,0.0001,0.0019,0.0018,0.0035,0.0038,0.005,0.0073,0.0075,0.0063,0.0064,0.0065,0.0066,0,0,0,0,0,0,0,-0.0056,-0.0053,-0.0032,-0.0038,-0.0035,-0.0018,-0.0014,0.0002,0.002,0.0003,0.0004,0.0006,0.0036,0.0048,0.0051,0.0075,0.0063,0.0065,0.0066,0.0066,0.0126,0.0127,0,0,0,0,0,0,-0.0067,-0.0055,-0.0034,-0.0031,-0.0047,-0.0017,-0.0013,-0.001,0.002,0.0024,0.0006,0.0007,0.0045,0.0049,0.0052,0.0089,0.0065,0.0067,0.0068,0.0125,0.0126,0.0127,0,0,0,0,0,0,-0.0068,-0.0066,-0.0036,-0.0044,-0.0039,-0.0017,-0.0014,-0.001,0.0002,0.0022,0.0026,0.0013,0.0045,0.005,0.0073,0.009,0.0067,0.0069,0.0125,0.0126,0.0126,0.015,0,0,0,0,0,0,-0.0069,-0.0066,-0.0064,-0.0045,-0.0039,-0.0016,-0.0014,-0.0009,0.0003,0.0004,0.0029,0.0033,0.0046,0.007,0.0074,0.0092,0.007,0.0124,0.0125,0.0126,0.0149,0.0152,0.0154,0,0,0,0,0,-0.007,-0.0059,-0.0064,-0.0062,-0.0038,-0.0016,-0.001,0.0006,0.0003,0.0015,0.003,0.0032,0.008,0.0072,0.0077,0.0095,0.0123,0.0125,0.0126,0.0147,0.0151,0.0154,0,0,0,0,0,0,-0.0061,-0.0055,-0.006,-0.0047,-0.0035,-0.0012,0.0001,0.0004,0.0027,0.0027,0.0041,0.0047,0.007,0.0078,0.0069,0.0115,0.0101,0.0104,0.0116,0.012,0.0122,0.0191,0.0071,0,0,0,0,0,-0.0063,-0.0057,-0.0049,-0.0038,-0.0034,-0.002,-0.001,-0.0002,0.0017,0.0026,0.0042,0.006,0.008,0.0096,0.011,0.0139,0.0158,0.0152,0.0155,0.0158,0.0216,0.0241,0.0252,0.0131,0.0131,0.0131,0,0,-0.0056,-0.0053,-0.0049,-0.0037,-0.0026,-0.0008,-0.0013,0.0004,0.0028,0.0027,0.0063,0.0066,0.0086,0.0118,0.013,0.0129,0.0192,0.0159,0.0162,0.022,0.0244,0.0256,0.0266,0.0132,0.0132,0.0132,0,0,-0.0038,-0.0039,-0.003,-0.002,-0.0011,0.0002,0.0004,0.0022,0.004,0.0063,0.0072,0.01,0.0114,0.0155,0.0171,0.0202,0.0199,0.0184,0.0267,0.0289,0.03,0.031,0.031,0.032,0.0195,0.0195,0.0195,0,-0.003,-0.0015,-0.0021,-0.0009,0.0015,0.0006,0.0036,0.0048,0.0073,0.0124,0.0075,0.0161,0.0145,0.0242,0.0239,0.0214,0.0216,0.0248,0.0295,0.0305,0.0315,0.0314,0.0325,0.0196,0.0196,0.0196,0.0196,0,-0.0006,0.0008,0.0018,0.0032,0.0054,0.0078,0.0094,0.0129,0.0135,0.0165,0.0245,0.0236,0.0313,0.028,0.0263,0.0343,0.0315,0.0284,0.0288,0.0329,0.0324,0.0335,0.0198,0.0197,0.0197,0.0197,0,0,0.0019,0.0033,0.0038,0.0079,0.0085,0.0129,0.0167,0.0246,0.0343,0.0323,0.0447,0.0438,0.046,0.0483,0.0467,0.0473,0.049,0.041,0.041,0.0418,0.0527,0.0497,0.0506,0.0458,0.0461,0.0463,0.048,0,0.0048,0.0096,0.009,0.0168,0.021,0.0234,0.0303,0.0372,0.0422,0.0531,0.0538,0.0629,0.0528,0.058,0.0566,0.0533,0.0528,0.049,0.0484,0.0485,0.046,0.0522,0.0436,0.0445,0.0491,0.0493,0.0494,0,0.0076,0.0119,0.0191,0.03,0.0327,0.0373,0.0546,0.0609,0.0734,0.0781,0.0861,0.0866,0.0913,0.0793,0.0773,0.075,0.0654,0.0593,0.0592,0.0585,0.048,0.042,0.0464,0.0286,0.0511,0.0509,0.0508,0,0.0142,0.0201,0.0283,0.0308,0.0414,0.049,0.0564,0.0701,0.0829,0.0965,0.1075,0.1101,0.1153,0.105,0.0902,0.0848,0.0849,0.0757,0.0645,0.064,0.0587,0.0573,0.0478,0.0742,0.0742,0.0742,0.0742,0,0.0192,0.027,0.033,0.0387,0.056,0.0589,0.0798,0.0892,0.1052,0.124,0.1228,0.1374,0.1218,0.1188,0.1002,0.0879,0.0929,0.0707,0.0667,0.0585,0.0572,0.0431,0.0328,0.0742,0.0742,0.0742,0.0742,0,0.0286,0.0289,0.0433,0.0553,0.0597,0.0747,0.0938,0.1098,0.1228,0.1469,0.1525,0.1604,0.1572,0.1393,0.1239,0.1048,0.0783,0.083,0.0736,0.0687,0.0411,0.0313,0.0269,0.0137,0.0733,0.0733,0.0733,0,0.0356,0.042,0.0582,0.0681,0.0745,0.0927,0.1057,0.119,0.1344,0.1622,0.174,0.1803,0.1863,0.1639,0.1295,0.1005,0.08,0.0739,0.0627,0.0434,0.0294,0.0248,0.0135,0.0537,0.0535,0.0533,0.0532,0,0.0532,0.0578,0.0696,0.0881,0.1017,0.1195,0.1358,0.1491,0.1671,0.1862,0.2096,0.2175,0.1976,0.1675,0.1274,0.1038,0.0585,0.0702,0.0532,0.0189,0.0108,-0.0053,0.0469,0.0519,0.052,0.0521,0.0522,0.0523,0.0696,0.0811,0.0933,0.1122,0.1256,0.1427,0.159,0.1729,0.1969,0.2237,0.2303,0.2422,0.1988,0.1447,0.111,0.047,0.051,0.026,0.0172,0.0157,-0.0003,0.0499,0.0486,0.0487,0.0488,0.0489,0.049,0,0.0894,0.0971,0.1159,0.135,0.1498,0.1545,0.1772,0.1923,0.2152,0.2336,0.252,0.2365,0.1804,0.1234,0.0397,-0.0009,-0.0182,-0.0206,-0.0325,-0.041,0.0056,0.0011,-0.0139,-0.0139,-0.0139,-0.0139,-0.0139,-0.0138,0.1002,0.1184,0.1259,0.1517,0.1631,0.1859,0.1988,0.2172,0.2315,0.252,0.2556,0.2596,0.2162,0.0711,-0.0274,-0.0478,-0.0759,-0.078,-0.0889,-0.0621,-0.0585,-0.0551,-0.0617,-0.0897,-0.0898,-0.1365,-0.137,-0.1373]}],[{"header":{"parameterUnit":"m.s-1","parameterCategory":2,"la1":30.2991,"la2":30.254,"lo1":-89.0895,"lo2":-89.0444,"dy":0.0017,"dx":0.0017,"nx":28,"ny":28,"refTime":"2025-06-11T09:00:00:Z","depth":"2","parameterNumber":2,"parameterNumberName":"U-component_of_CURRENTS"},"data":[0,0,0,0,0,0,0,0,0,0,0,0,0,0,0,0,0,0,0,0,0,0,0,0,0,0,0,0,0,0,0,0,0,0,0,0,0,0,0,0,0,0,0,0,0,0,0,0,0,0,0,0,0,0,0,0,0,0,0.1587,0.1588,0,0.1643,0.1643,0.1644,0.1626,0.1625,0.1624,0.1623,0.1664,0.1666,0.1668,0,0,0,0,0,0,0,0,0,0,0,0,0,0.152,0.1521,0.1587,0.1588,0.1588,0.1643,0.1643,0.1644,0.1627,0.1625,0.1624,0.1622,0.1663,0.1666,0.1668,0,0,0,0,0,0,0,0,0,0,0,0,0,0.156,0.1521,0.1587,0.1586,0.1587,0.1642,0.1643,0.1644,0.1627,0.1625,0.1623,0.1622,0.1662,0.1665,0.1669,0.1724,0,0,0.1679,0.168,0,0,0,0,0,0,0,0,0.1557,0.1562,0.1586,0.1586,0.1587,0.1626,0.1635,0.167,0.1627,0.1611,0.1623,0.1621,0.1651,0.1655,0.167,0.1726,0.1727,0.1679,0.1681,0.1682,0.1683,0,0,0,0,0,0,0,0.1554,0.156,0.1609,0.1587,0.1587,0.1602,0.1605,0.1642,0.164,0.1613,0.1612,0.1619,0.1651,0.1666,0.167,0.1728,0.1679,0.1682,0.1684,0.1685,0.1844,0.1846,0,0,0,0,0,0,0.1547,0.1557,0.1607,0.161,0.1568,0.1604,0.1608,0.1615,0.164,0.1642,0.162,0.1618,0.1662,0.1667,0.1672,0.1731,0.1682,0.1685,0.1687,0.1842,0.1845,0.1847,0,0,0,0,0,0,0.1546,0.1551,0.1605,0.1585,0.1593,0.1607,0.1616,0.1617,0.1627,0.1646,0.1647,0.1628,0.1661,0.1667,0.1707,0.1733,0.1687,0.169,0.1839,0.1843,0.1846,0.1856,0,0,0,0,0,0,0.1544,0.155,0.1558,0.1585,0.1594,0.1642,0.1617,0.1619,0.1635,0.1632,0.1654,0.1655,0.166,0.1703,0.1711,0.1736,0.1692,0.1836,0.1841,0.1845,0.1852,0.1859,0.1864,0,0,0,0,0,0.1541,0.1564,0.1559,0.1565,0.1602,0.1643,0.165,0.1654,0.1637,0.1654,0.1665,0.1654,0.1735,0.1707,0.1716,0.1743,0.1834,0.1839,0.1844,0.185,0.1858,0.1864,0,0,0,0,0,0,0.1543,0.1565,0.1559,0.1588,0.1612,0.164,0.1661,0.1659,0.1683,0.1677,0.1682,0.1687,0.1733,0.1747,0.1715,0.1806,0.1785,0.1792,0.1786,0.1794,0.18,0.181,0.1695,0,0,0,0,0,0.1546,0.1565,0.1589,0.1612,0.1625,0.1642,0.1659,0.1662,0.1684,0.1691,0.1704,0.173,0.1767,0.1783,0.1817,0.1867,0.19,0.1895,0.19,0.1905,0.1923,0.2006,0.2021,0.1864,0.1864,0.1864,0,0,0.1552,0.1569,0.1578,0.1613,0.1631,0.1661,0.1648,0.1679,0.1701,0.1696,0.1731,0.1752,0.1787,0.1838,0.1861,0.1847,0.1966,0.1912,0.1915,0.1931,0.2013,0.2028,0.2042,0.1867,0.1867,0.1866,0,0,0.158,0.159,0.1614,0.1638,0.1669,0.1682,0.169,0.1719,0.1729,0.1771,0.1774,0.1815,0.1861,0.1895,0.1917,0.1987,0.1997,0.1992,0.2027,0.2107,0.212,0.2132,0.2179,0.2196,0.1992,0.1992,0.1992,0,0.1584,0.1612,0.163,0.1662,0.168,0.169,0.1719,0.1744,0.178,0.1807,0.1783,0.1877,0.1896,0.1973,0.1989,0.2,0.2034,0.1986,0.2113,0.2126,0.2138,0.2184,0.2202,0.1993,0.1993,0.1993,0.1993,0,0.1629,0.1649,0.167,0.1703,0.1733,0.176,0.1791,0.1822,0.1828,0.1856,0.1925,0.1953,0.2018,0.2022,0.2022,0.2121,0.2112,0.2108,0.2086,0.2154,0.2198,0.2217,0.1995,0.1994,0.1994,0.1994,0,0,0.1634,0.1686,0.1691,0.1713,0.175,0.1786,0.1829,0.1884,0.1939,0.1959,0.2046,0.2078,0.2102,0.2131,0.2141,0.219,0.2291,0.2182,0.2185,0.2214,0.2451,0.2379,0.2392,0.2305,0.2308,0.2311,0.244,0,0.1654,0.1712,0.1731,0.1785,0.1816,0.1841,0.1895,0.1951,0.1994,0.2089,0.2123,0.2209,0.2143,0.2191,0.223,0.2297,0.2343,0.2256,0.2394,0.2399,0.2315,0.2413,0.2229,0.2323,0.2458,0.2461,0.2463,0,0.1681,0.1719,0.1769,0.1836,0.1855,0.1891,0.1984,0.2036,0.2157,0.2209,0.2281,0.2323,0.2415,0.2358,0.2468,0.2414,0.2439,0.246,0.2465,0.2413,0.2363,0.2284,0.2351,0.2494,0.2491,0.2489,0.2487,0,0.1681,0.1742,0.178,0.1801,0.1883,0.1919,0.1967,0.2071,0.2148,0.2303,0.2384,0.2479,0.2566,0.2601,0.2608,0.257,0.2723,0.2687,0.2636,0.263,0.251,0.2487,0.2778,0.2778,0.2778,0.2777,0.2777,0,0.1691,0.1729,0.1786,0.1815,0.1892,0.1941,0.2051,0.2119,0.2261,0.2386,0.2449,0.2556,0.2634,0.2706,0.269,0.2715,0.2792,0.2672,0.2677,0.2506,0.2482,0.2657,0.2641,0.2782,0.2781,0.278,0.2779,0,0.17,0.1723,0.1787,0.1867,0.1893,0.196,0.2091,0.2173,0.2297,0.2469,0.2529,0.2673,0.2772,0.2793,0.2896,0.2831,0.2857,0.2837,0.2611,0.2586,0.2691,0.2675,0.2835,0.2834,0.2833,0.2833,0.2832,0,0.1716,0.1739,0.1826,0.1867,0.1903,0.2003,0.2065,0.2189,0.228,0.2518,0.2594,0.2755,0.283,0.2917,0.2879,0.2865,0.2879,0.2668,0.2564,0.2718,0.2707,0.2691,0.2676,0.2407,0.2403,0.24,0.2397,0,0.1752,0.1773,0.1821,0.1893,0.1949,0.2045,0.214,0.2205,0.237,0.2496,0.2668,0.2748,0.2854,0.2775,0.2745,0.2693,0.2655,0.2601,0.2874,0.2406,0.2321,0.2307,0.2306,0.2368,0.2371,0.2373,0.2374,0.2376,0.1778,0.181,0.185,0.1912,0.1977,0.2043,0.2088,0.2182,0.2296,0.2385,0.2553,0.2559,0.2617,0.2465,0.2408,0.2373,0.2537,0.2409,0.2417,0.2429,0.2342,0.2259,0.2276,0.2278,0.228,0.2282,0.2283,0,0.1795,0.1815,0.1869,0.1931,0.1973,0.2024,0.2103,0.2088,0.2145,0.2214,0.2279,0.2091,0.2041,0.2095,0.2022,0.2031,0.1979,0.194,0.1868,0.1902,0.1931,0.1814,0.161,0.1608,0.1605,0.1603,0,0,0.18,0.1817,0.1817,0.1869,0.1929,0.1949,0.1961,0.1912,0.192,0.1827,0.1792,0.1823,0.2003,0.1728,0.1748,0.1684,0.1756,0.1611,0.2162,0.2111,0.2135,0.2229,0.2091,0,0,0,0,0]},{"header":{"parameterUnit":"m.s-1","parameterCategory":2,"la1":30.2991,"la2":30.254,"lo1":-89.0895,"lo2":-89.0444,"dy":0.0017,"dx":0.0017,"nx":28,"ny":28,"refTime":"2025-06-11T09:00:00:Z","depth":"2","parameterNumber":3,"parameterNumberName":"V-component_of_CURRENTS"},"data":[0,0,0,0,0,0,0,0,0,0,0,0,0,0,0,0,0,0,0,0,0,0,0,0,0,0,0,0,0,0,0,0,0,0,0,0,0,0,0,0,0,0,0,0,0,0,0,0,0,0,0,0,0,0,0,0,0,0,-0.0147,-0.0147,0,-0.0115,-0.0114,-0.0114,-0.01,-0.01,-0.01,-0.01,-0.011,-0.011,-0.011,0,0,0,0,0,0,0,0,0,0,0,0,0,-0.0169,-0.0169,-0.0147,-0.0147,-0.0147,-0.0115,-0.0114,-0.0114,-0.01,-0.01,-0.01,-0.01,-0.011,-0.011,-0.011,0,0,0,0,0,0,0,0,0,0,0,0,0,-0.0149,-0.0169,-0.0147,-0.0137,-0.0136,-0.0115,-0.0114,-0.0113,-0.01,-0.01,-0.01,-0.0101,-0.011,-0.011,-0.011,-0.0106,0,0,-0.0111,-0.0111,0,0,0,0,0,0,0,0,-0.0151,-0.0148,-0.0139,-0.0138,-0.0136,-0.0113,-0.0126,-0.0113,-0.01,-0.0112,-0.01,-0.0101,-0.0116,-0.0115,-0.0106,-0.0106,-0.0107,-0.0111,-0.0111,-0.0111,-0.0111,0,0,0,0,0,0,0,-0.0152,-0.015,-0.0133,-0.0138,-0.0137,-0.0124,-0.0122,-0.0123,-0.0113,-0.0111,-0.011,-0.0109,-0.0115,-0.0106,-0.0106,-0.0107,-0.0111,-0.0111,-0.0111,-0.0111,-0.0071,-0.007,0,0,0,0,0,0,-0.016,-0.0151,-0.0134,-0.0132,-0.0146,-0.0124,-0.0121,-0.0119,-0.0112,-0.0111,-0.0108,-0.0108,-0.0106,-0.0106,-0.0107,-0.0079,-0.0111,-0.0111,-0.0111,-0.0072,-0.0071,-0.007,0,0,0,0,0,0,-0.016,-0.0158,-0.0135,-0.0142,-0.0138,-0.0124,-0.0121,-0.0118,-0.0108,-0.0109,-0.0109,-0.0102,-0.0106,-0.0107,-0.0091,-0.0081,-0.0111,-0.0111,-0.0074,-0.0072,-0.007,-0.0038,0,0,0,0,0,0,-0.0161,-0.0159,-0.0157,-0.0142,-0.0138,-0.0118,-0.0121,-0.0117,-0.0108,-0.0107,-0.0104,-0.0105,-0.0106,-0.0091,-0.0091,-0.0081,-0.0112,-0.0075,-0.0073,-0.0071,-0.0041,-0.0036,-0.0031,0,0,0,0,0,-0.0162,-0.0152,-0.0157,-0.0154,-0.0137,-0.0118,-0.0114,-0.0103,-0.0107,-0.0097,-0.0088,-0.0105,-0.0078,-0.009,-0.0091,-0.0081,-0.0076,-0.0073,-0.0071,-0.0043,-0.0037,-0.0031,0,0,0,0,0,0,-0.0154,-0.015,-0.0154,-0.0143,-0.0132,-0.0116,-0.0105,-0.0103,-0.0087,-0.0088,-0.009,-0.009,-0.0075,-0.0077,-0.0091,-0.006,-0.008,-0.0077,-0.0058,-0.0053,-0.0048,-0.0029,-0.0112,0,0,0,0,0,-0.0154,-0.0149,-0.0143,-0.0132,-0.0129,-0.0119,-0.011,-0.0105,-0.0092,-0.0085,-0.0081,-0.0074,-0.0064,-0.0058,-0.0053,-0.0036,-0.0078,-0.0029,-0.0024,-0.002,-0.0004,-0.0047,-0.0045,-0.0061,-0.0061,-0.0061,0,0,-0.0148,-0.0145,-0.0142,-0.0131,-0.0123,-0.0107,-0.0113,-0.0098,-0.008,-0.009,-0.0062,-0.0063,-0.0057,-0.0034,-0.0028,-0.0035,-0.0046,-0.0017,-0.0014,0.0001,-0.0044,-0.0043,-0.0041,-0.0059,-0.006,-0.006,0,0,-0.013,-0.0132,-0.0122,-0.0114,-0.0105,-0.0095,-0.0093,-0.0077,-0.0066,-0.0045,-0.0043,-0.0027,-0.002,-0.0001,0.0006,0.0041,-0.0024,0.0034,0.0077,0.0035,0.0036,0.0036,-0.006,-0.0069,0.0041,0.0042,0.0042,0,-0.0122,-0.0108,-0.0114,-0.0102,-0.0084,-0.0091,-0.0065,-0.0056,-0.0036,-0.0015,-0.0034,-0.0025,0.0,0.0016,0.006,0.0051,-0.0005,0.0051,0.0039,0.0039,0.0038,-0.006,-0.007,0.0043,0.0043,0.0043,0.0043,0,-0.0098,-0.0085,-0.0076,-0.0063,-0.0046,-0.0024,-0.0014,0.0012,0.0016,0.0021,0.0024,0.0022,0.0036,0.0043,0.0081,0.0095,0.004,0.0041,0.0019,0.0041,-0.0064,-0.0075,0.0046,0.0045,0.0045,0.0044,0,0,-0.0073,-0.006,-0.0056,-0.0022,-0.0018,0.0018,0.0042,0.0082,0.0101,0.0081,0.0114,0.0123,0.01,0.011,0.0108,0.0099,0.0069,0.0094,0.0091,-0.0012,-0.0076,-0.0101,-0.0117,0.0059,0.0058,0.0058,-0.0166,0,-0.0044,-0.0004,-0.0009,0.0056,0.0089,0.0102,0.0126,0.0156,0.0151,0.0182,0.0154,0.0173,0.0121,0.0144,0.0111,0.0112,0.005,0.0127,-0.0071,-0.0078,-0.011,-0.0125,-0.0042,-0.0231,-0.0177,-0.0179,-0.018,0,-0.0016,0.0017,0.0075,0.014,0.0156,0.0193,0.0255,0.0274,0.0288,0.0287,0.0247,0.0222,0.0224,0.0188,0.0053,0.0098,0.0023,-0.0024,-0.0035,-0.0067,-0.012,-0.0233,-0.0254,-0.0199,-0.0198,-0.0196,-0.0195,0,0.0037,0.0088,0.0151,0.0171,0.0224,0.0278,0.0314,0.0317,0.0331,0.0372,0.0363,0.0292,0.0301,0.0164,0.003,0.007,-0.0148,-0.0113,-0.0261,-0.0268,-0.0236,-0.0237,-0.0232,-0.0231,-0.0231,-0.023,-0.023,0,0.0082,0.0145,0.0192,0.024,0.0339,0.0345,0.0403,0.0443,0.0433,0.0443,0.0414,0.0346,0.0312,0.0165,0.0022,-0.0195,-0.0198,-0.0262,-0.0314,-0.0227,-0.0225,-0.0207,-0.0201,-0.0239,-0.0237,-0.0235,-0.0234,0,0.0146,0.0158,0.0249,0.0326,0.0372,0.0446,0.049,0.0492,0.0484,0.0498,0.0527,0.0445,0.0271,0.0094,-0.0076,-0.0185,-0.0388,-0.0481,-0.0403,-0.0437,-0.0476,-0.0466,-0.0607,-0.061,-0.0612,-0.0613,-0.0615,0,0.0192,0.0237,0.0338,0.0364,0.0413,0.0496,0.0527,0.0559,0.0549,0.0483,0.0494,0.0374,0.0265,-0.0074,-0.0231,-0.0504,-0.0549,-0.0596,-0.0461,-0.0472,-0.0509,-0.0495,-0.0482,-0.0444,-0.0444,-0.0444,-0.0444,0,0.0256,0.0273,0.0309,0.0391,0.045,0.0523,0.058,0.0597,0.0599,0.0595,0.0504,0.0425,0.017,-0.0004,-0.0305,-0.0492,-0.0519,-0.0599,-0.0652,-0.034,-0.033,-0.0362,-0.0352,-0.0444,-0.0444,-0.0444,-0.0444,-0.0444,0.0251,0.0284,0.0285,0.0357,0.0444,0.0515,0.0524,0.059,0.0621,0.0644,0.0546,0.048,0.0296,-0.002,-0.0323,-0.0562,-0.0546,-0.0576,-0.0572,-0.0568,-0.0487,-0.0477,-0.061,-0.0611,-0.0611,-0.0612,-0.0613,0,0.0169,0.0192,0.0242,0.0311,0.0394,0.0491,0.0512,0.0532,0.059,0.072,0.0702,0.0524,0.0322,0.0031,-0.0264,-0.0462,-0.0445,-0.0565,-0.0462,-0.0462,-0.0462,-0.037,-0.0465,-0.0466,-0.0466,-0.0466,0,0,0.0104,0.0051,0.0078,0.018,0.0325,0.0376,0.0383,0.0526,0.0597,0.0729,0.0783,0.0783,0.0452,0.0268,-0.0045,-0.0236,-0.0299,-0.0289,-0.038,-0.0219,-0.0215,-0.0442,-0.0298,0,0,0,0,0]}],[{"header":{"parameterUnit":"m.s-1","parameterCategory":2,"la1":30.2991,"la2":30.254,"lo1":-89.0895,"lo2":-89.0444,"dy":0.0017,"dx":0.0017,"nx":28,"ny":28,"refTime":"2025-06-11T09:00:00:Z","depth":"4","parameterNumber":2,"parameterNumberName":"U-component_of_CURRENTS"},"data":[0,0,0,0,0,0,0,0,0,0,0,0,0,0,0,0,0,0,0,0,0,0,0,0,0,0,0,0,0,0,0,0,0,0,0,0,0,0,0,0,0,0,0,0,0,0,0,0,0,0,0,0,0,0,0,0,0,0,0.0862,0.0863,0,0.0907,0.0908,0.0908,0.0939,0.0939,0.094,0.094,0.0987,0.0988,0.0989,0,0,0,0,0,0,0,0,0,0,0,0,0,0.0801,0.0801,0.0862,0.0863,0.0864,0.0907,0.0908,0.0908,0.0939,0.0939,0.094,0.0941,0.0987,0.0988,0.0989,0,0,0,0,0,0,0,0,0,0,0,0,0,0.0832,0.0801,0.0862,0.0886,0.0889,0.0907,0.0908,0.0908,0.0939,0.0939,0.094,0.0941,0.0987,0.0988,0.0989,0.0983,0,0,0.0993,0.0993,0,0,0,0,0,0,0,0,0.083,0.0834,0.0882,0.0885,0.0888,0.092,0.0903,0.0934,0.0939,0.0917,0.094,0.0941,0.0966,0.0969,0.0973,0.0985,0.0987,0.0993,0.0994,0.0994,0.0995,0,0,0,0,0,0,0,0.0828,0.0832,0.0877,0.0883,0.0886,0.0894,0.0899,0.0909,0.0935,0.0919,0.0922,0.0931,0.0968,0.0971,0.0974,0.0988,0.0993,0.0994,0.0995,0.0995,0.1078,0.108,0,0,0,0,0,0,0.0827,0.083,0.0876,0.0879,0.0863,0.0895,0.0901,0.0907,0.0935,0.0941,0.093,0.0932,0.0969,0.0972,0.0976,0.106,0.0994,0.0995,0.0996,0.1077,0.1079,0.108,0,0,0,0,0,0,0.0825,0.0831,0.0874,0.0858,0.0864,0.0896,0.0903,0.0908,0.0925,0.0944,0.095,0.0944,0.097,0.0974,0.1021,0.1059,0.0996,0.0997,0.1075,0.1077,0.1079,0.1172,0,0,0,0,0,0,0.0823,0.083,0.0845,0.0858,0.0865,0.0904,0.0902,0.0908,0.0929,0.0933,0.0957,0.0962,0.097,0.1019,0.1022,0.106,0.0998,0.1073,0.1076,0.1079,0.1167,0.1177,0.1185,0,0,0,0,0,0.0821,0.0833,0.0845,0.0852,0.0882,0.0905,0.091,0.0932,0.093,0.0947,0.0975,0.0962,0.1038,0.1022,0.1025,0.1064,0.1072,0.1075,0.1078,0.1163,0.1175,0.1185,0,0,0,0,0,0,0.0809,0.0838,0.0852,0.0871,0.0898,0.0911,0.093,0.0936,0.0968,0.098,0.0984,0.0992,0.1047,0.1037,0.1019,0.1094,0.105,0.1055,0.1113,0.1125,0.1134,0.1121,0.0999,0,0,0,0,0,0.0815,0.0845,0.0862,0.0888,0.0894,0.0912,0.0926,0.0946,0.097,0.0984,0.101,0.1034,0.1058,0.1078,0.11,0.1139,0.1124,0.1163,0.1173,0.1181,0.1171,0.1182,0.1191,0.1091,0.1091,0.1091,0,0,0.0821,0.0843,0.086,0.089,0.0908,0.0927,0.0922,0.0955,0.0984,0.0984,0.1044,0.1069,0.1075,0.1133,0.1154,0.1134,0.1208,0.1185,0.1192,0.1178,0.1186,0.1196,0.1205,0.1093,0.1093,0.1092,0,0,0.084,0.0861,0.0885,0.0909,0.0948,0.0957,0.0966,0.0999,0.1025,0.1076,0.1092,0.1137,0.1174,0.12,0.1207,0.1271,0.1255,0.1286,0.1328,0.134,0.1348,0.1355,0.1377,0.1385,0.1293,0.1293,0.1294,0,0.0852,0.0878,0.0897,0.0925,0.0948,0.0967,0.099,0.1016,0.1073,0.1106,0.1107,0.1188,0.1197,0.1257,0.129,0.1292,0.1303,0.129,0.1352,0.1358,0.1364,0.1384,0.1392,0.1298,0.1298,0.1297,0.1297,0,0.0876,0.091,0.0924,0.0967,0.0992,0.1023,0.1052,0.1101,0.1129,0.1159,0.1237,0.1266,0.1317,0.133,0.1329,0.1389,0.1389,0.1363,0.1324,0.138,0.1398,0.1404,0.1305,0.1303,0.1302,0.1301,0,0,0.0868,0.0932,0.0938,0.0974,0.102,0.1045,0.1097,0.1149,0.1196,0.1256,0.1312,0.1367,0.1402,0.1412,0.1435,0.1442,0.1501,0.1431,0.143,0.1453,0.1551,0.1484,0.1484,0.15,0.1501,0.1502,0.1559,0,0.0885,0.0938,0.0966,0.1028,0.1051,0.1101,0.1142,0.1203,0.1255,0.1323,0.1359,0.142,0.1428,0.1471,0.149,0.1501,0.1518,0.1489,0.1491,0.1491,0.1425,0.1488,0.1505,0.1563,0.1564,0.1565,0.1566,0,0.0877,0.0928,0.0982,0.1064,0.1078,0.1128,0.1215,0.1263,0.1349,0.1389,0.1467,0.1499,0.1566,0.1533,0.1593,0.1586,0.1578,0.1563,0.1565,0.1466,0.1435,0.1488,0.1577,0.1576,0.1575,0.1574,0.1574,0,0.0845,0.0927,0.0977,0.1008,0.1102,0.1161,0.1215,0.13,0.1351,0.145,0.1499,0.1575,0.1625,0.1633,0.1646,0.1632,0.1671,0.1642,0.1572,0.1568,0.1568,0.156,0.1649,0.1648,0.1648,0.1648,0.1648,0,0.0826,0.0872,0.0983,0.1027,0.1095,0.1167,0.1252,0.1317,0.1414,0.1459,0.1552,0.1593,0.165,0.1688,0.1674,0.1662,0.1709,0.1586,0.1577,0.161,0.1606,0.1574,0.1565,0.165,0.165,0.1649,0.1649,0,0.0763,0.0834,0.0915,0.1047,0.1086,0.1142,0.1266,0.1315,0.1427,0.1494,0.1528,0.1637,0.1687,0.173,0.1737,0.1698,0.1675,0.1645,0.1705,0.1696,0.1559,0.1554,0.1583,0.1581,0.158,0.1578,0.1577,0,0.0727,0.0761,0.0917,0.0959,0.103,0.1123,0.1165,0.1297,0.1335,0.1491,0.1495,0.1614,0.1661,0.165,0.1689,0.169,0.1652,0.1646,0.1575,0.1564,0.1552,0.155,0.1547,0.1575,0.1574,0.1574,0.1573,0,0.0672,0.0742,0.0805,0.09,0.0975,0.1033,0.1116,0.1145,0.1269,0.1386,0.1436,0.1492,0.1551,0.1584,0.1612,0.1591,0.1657,0.1628,0.163,0.1564,0.1553,0.1543,0.1542,0.1568,0.1568,0.1569,0.1569,0,0.0622,0.0646,0.075,0.0812,0.0886,0.0932,0.0992,0.1044,0.1115,0.1281,0.1282,0.1411,0.1509,0.1532,0.1541,0.1549,0.1516,0.1454,0.1465,0.1472,0.141,0.138,0.1339,0,0,0,0,0,0.0578,0.0603,0.0654,0.0732,0.0791,0.086,0.0938,0.0994,0.1113,0.1111,0.1204,0.1247,0.1324,0.1391,0.1375,0.1493,0.1517,0.1469,0.1448,0.1537,0.1543,0.1482,0,0,0,0,0,0,0.0553,0.0605,0.0634,0.065,0.0681,0.0752,0.0813,0.0892,0.0894,0.1021,0.1062,0.1175,0.1256,0.1318,0.1352,0.1373,0.1336,0.1551,0.1548,0.1533,0.1539,0.1544,0.1484,0,0,0,0,0]},{"header":{"parameterUnit":"m.s-1","parameterCategory":2,"la1":30.2991,"la2":30.254,"lo1":-89.0895,"lo2":-89.0444,"dy":0.0017,"dx":0.0017,"nx":28,"ny":28,"refTime":"2025-06-11T09:00:00:Z","depth":"4","parameterNumber":3,"parameterNumberName":"V-component_of_CURRENTS"},"data":[0,0,0,0,0,0,0,0,0,0,0,0,0,0,0,0,0,0,0,0,0,0,0,0,0,0,0,0,0,0,0,0,0,0,0,0,0,0,0,0,0,0,0,0,0,0,0,0,0,0,0,0,0,0,0,0,0,0,-0.0044,-0.0045,0,-0.009,-0.009,-0.0091,-0.013,-0.0131,-0.0131,-0.0132,-0.0235,-0.0238,-0.024,0,0,0,0,0,0,0,0,0,0,0,0,0,-0.0023,-0.0023,-0.0044,-0.0045,-0.0045,-0.009,-0.009,-0.0091,-0.013,-0.0131,-0.0131,-0.0132,-0.0235,-0.0237,-0.024,0,0,0,0,0,0,0,0,0,0,0,0,0,-0.0047,-0.0023,-0.0044,-0.007,-0.0073,-0.009,-0.009,-0.0091,-0.013,-0.0131,-0.0131,-0.0132,-0.0234,-0.0237,-0.0241,-0.025,0,0,-0.0251,-0.0253,0,0,0,0,0,0,0,0,-0.0046,-0.0048,-0.0066,-0.0068,-0.0072,-0.0105,-0.0121,-0.0147,-0.013,-0.0109,-0.0132,-0.0132,-0.0197,-0.0203,-0.021,-0.0254,-0.0259,-0.0252,-0.0254,-0.0255,-0.0256,0,0,0,0,0,0,0,-0.0044,-0.0046,-0.0063,-0.0066,-0.007,-0.009,-0.0094,-0.0126,-0.015,-0.0111,-0.0113,-0.0118,-0.0199,-0.0206,-0.0213,-0.026,-0.0252,-0.0255,-0.0257,-0.0258,-0.0333,-0.0332,0,0,0,0,0,0,-0.0035,-0.0044,-0.0061,-0.0064,-0.006,-0.009,-0.0094,-0.0094,-0.0148,-0.0157,-0.0117,-0.012,-0.02,-0.0208,-0.0216,-0.0236,-0.0255,-0.0259,-0.0261,-0.0333,-0.0333,-0.0332,0,0,0,0,0,0,-0.0035,-0.0036,-0.0059,-0.0056,-0.006,-0.009,-0.0089,-0.0094,-0.0103,-0.0153,-0.0162,-0.012,-0.0201,-0.0212,-0.0247,-0.024,-0.026,-0.0263,-0.0333,-0.0333,-0.0332,-0.0272,0,0,0,0,0,0,-0.0034,-0.0036,-0.0035,-0.0055,-0.006,-0.0067,-0.0088,-0.0095,-0.0104,-0.0108,-0.0158,-0.0168,-0.0202,-0.0242,-0.0251,-0.0246,-0.0266,-0.0333,-0.0333,-0.0332,-0.0274,-0.027,-0.0266,0,0,0,0,0,-0.0033,-0.0026,-0.0034,-0.0036,-0.0056,-0.0067,-0.0071,-0.0095,-0.0103,-0.0105,-0.0141,-0.0167,-0.0246,-0.0245,-0.0255,-0.0251,-0.0333,-0.0333,-0.0333,-0.0276,-0.0271,-0.0266,0,0,0,0,0,0,-0.0018,-0.003,-0.0039,-0.0037,-0.005,-0.0073,-0.0076,-0.0089,-0.0117,-0.0124,-0.0168,-0.0181,-0.0209,-0.0238,-0.0235,-0.0272,-0.0293,-0.0294,-0.0246,-0.0241,-0.0237,-0.0252,-0.0269,0,0,0,0,0,-0.0013,-0.0014,-0.0027,-0.0029,-0.0029,-0.0051,-0.0058,-0.0073,-0.0099,-0.0111,-0.0146,-0.0184,-0.0215,-0.0234,-0.0269,-0.0289,-0.0318,-0.0293,-0.0288,-0.0285,-0.0304,-0.033,-0.033,-0.0331,-0.0331,-0.0331,0,0,-0.0011,-0.0017,-0.002,-0.0027,-0.0037,-0.003,-0.0057,-0.0065,-0.0066,-0.0119,-0.0136,-0.0173,-0.0217,-0.0241,-0.0256,-0.0266,-0.0295,-0.0284,-0.0281,-0.0303,-0.033,-0.033,-0.033,-0.0331,-0.0331,-0.0331,0,0,0.0007,-0.0007,0.0008,0.0002,-0.0008,-0.002,-0.0018,-0.0038,-0.0053,-0.0071,-0.0111,-0.0149,-0.0186,-0.0225,-0.0246,-0.0242,-0.0272,-0.0242,-0.0235,-0.0259,-0.0259,-0.026,-0.0275,-0.0277,-0.024,-0.0239,-0.0239,0,0.0008,0.0024,0.0008,0.0025,0.0016,-0.0009,0.0002,-0.0009,-0.0042,-0.0067,-0.0069,-0.0145,-0.0181,-0.0222,-0.0223,-0.0233,-0.0248,-0.0246,-0.0253,-0.0254,-0.0256,-0.0272,-0.0275,-0.0237,-0.0237,-0.0237,-0.0237,0,0.0047,0.0052,0.0059,0.007,0.0062,0.006,0.0046,0.0028,0.0007,-0.0015,-0.0061,-0.0108,-0.0163,-0.0166,-0.0196,-0.0228,-0.0233,-0.0241,-0.0262,-0.0252,-0.0269,-0.0274,-0.0232,-0.0233,-0.0234,-0.0235,0,0,0.006,0.0081,0.0082,0.0078,0.0078,0.0066,0.0066,0.0039,0.0023,-0.0006,-0.0033,-0.0088,-0.0128,-0.0157,-0.0193,-0.0217,-0.0233,-0.0234,-0.0237,-0.0245,-0.0278,-0.0256,-0.026,-0.0235,-0.0236,-0.0237,-0.0276,0,0.0089,0.0114,0.0122,0.0126,0.0128,0.01,0.01,0.0069,0.004,0.0011,-0.0045,-0.0078,-0.0115,-0.014,-0.0172,-0.0222,-0.0247,-0.0222,-0.0293,-0.0295,-0.0274,-0.0266,-0.024,-0.028,-0.0281,-0.0282,-0.0283,0,0.0133,0.0128,0.0142,0.0126,0.0127,0.0129,0.0084,0.0083,0.0041,0.0021,-0.0028,-0.0065,-0.0123,-0.0139,-0.0225,-0.0204,-0.0248,-0.0277,-0.0279,-0.0293,-0.0284,-0.03,-0.0292,-0.0292,-0.0291,-0.029,-0.029,0,0.0125,0.0143,0.0141,0.0137,0.0126,0.0111,0.0102,0.007,0.0073,0.0021,0.0018,-0.0058,-0.0079,-0.0152,-0.0221,-0.0226,-0.0294,-0.0305,-0.033,-0.0328,-0.0362,-0.0362,-0.037,-0.037,-0.037,-0.0369,-0.0369,0,0.0138,0.0128,0.0133,0.0117,0.0108,0.0103,0.0093,0.0073,0.0075,0.0094,0.0019,0.0022,-0.0082,-0.013,-0.0209,-0.0277,-0.0288,-0.0338,-0.0341,-0.0332,-0.0328,-0.0364,-0.0363,-0.0371,-0.0371,-0.037,-0.037,0,0.0114,0.0128,0.0112,0.0098,0.0104,0.0084,0.0112,0.0127,0.0111,0.0136,0.013,0.0086,0.0022,-0.0078,-0.018,-0.0243,-0.0323,-0.0346,-0.0319,-0.0319,-0.0347,-0.0342,-0.0387,-0.0387,-0.0387,-0.0386,-0.0386,0,0.0097,0.0096,0.0091,0.0115,0.0107,0.0104,0.0138,0.0138,0.0176,0.0187,0.0219,0.0162,0.0117,-0.0005,-0.0126,-0.0276,-0.0299,-0.0347,-0.0371,-0.0352,-0.0351,-0.0347,-0.0342,-0.0386,-0.0386,-0.0386,-0.0386,0,0.0059,0.0069,0.0073,0.0122,0.0154,0.0179,0.0222,0.0254,0.0284,0.0268,0.0302,0.0225,0.0158,0.0031,-0.0084,-0.0194,-0.0324,-0.0345,-0.0347,-0.037,-0.0351,-0.0349,-0.0345,-0.0385,-0.0385,-0.0385,-0.0385,0,0.0053,0.0061,0.0114,0.0148,0.0209,0.0267,0.0262,0.033,0.0355,0.0375,0.0389,0.0294,0.0239,0.0075,-0.0027,-0.0138,-0.018,-0.0227,-0.0237,-0.0239,-0.0192,-0.0145,-0.0123,0,0,0,0,0,0.0053,0.0101,0.0154,0.021,0.0276,0.0295,0.0357,0.0364,0.0379,0.0423,0.0412,0.035,0.0199,0.0127,0.0021,-0.0045,-0.0214,-0.0175,-0.0276,-0.038,-0.0381,-0.035,0,0,0,0,0,0,0.0075,0.0134,0.0162,0.0268,0.0315,0.0384,0.0412,0.042,0.0439,0.0438,0.0363,0.0313,0.0164,0.0262,0.0016,-0.0021,-0.0101,-0.0254,-0.0257,-0.0379,-0.038,-0.0381,-0.0349,0,0,0,0,0]}]]